Total_Precipitation_Accumulation
0.70 0.74 0.73 0.66 0.66 0.67 0.65 0.62 0.58 0.59 0.63 0.71 0.74 0.84 0.92 1.00 1.18 1.35 1.39 1.41 1.41 1.37 1.33 1.38 1.48 1.53 1.56 1.50 1.41 1.24 1.08 1.02 0.96 0.85 0.64 0.41 0.40 0.41 0.37 0.28 0.19 0.16 0.16
0.69 0.70 0.72 0.62 0.56 0.58 0.56 0.56 0.51 0.49 0.51 0.56 0.65 0.77 0.85 0.85 0.88 1.01 1.07 1.08 1.11 1.15 1.12 1.11 1.19 1.27 1.36 1.44 1.43 1.36 1.29 1.16 1.11 1.08 0.91 0.65 0.46 0.42 0.38 0.36 0.30 0.25 0.24
0.84 0.89 0.81 0.67 0.62 0.59 0.54 0.53 0.49 0.49 0.52 0.55 0.62 0.72 0.77 0.74 0.74 0.74 0.75 0.81 0.85 0.86 0.87 0.85 0.86 0.96 1.10 1.21 1.28 1.29 1.31 1.30 1.25 1.16 1.05 0.89 0.63 0.49 0.44 0.41 0.37 0.40 0.32
1.10 1.06 0.88 0.76 0.68 0.60 0.53 0.48 0.47 0.50 0.53 0.58 0.69 0.73 0.74 0.67 0.68 0.69 0.68 0.66 0.65 0.63 0.65 0.64 0.65 0.67 0.75 0.88 1.04 1.19 1.28 1.31 1.32 1.30 1.13 0.91 0.77 0.66 0.53 0.48 0.51 0.50 0.45
1.05 0.94 0.79 0.67 0.57 0.51 0.52 0.48 0.47 0.51 0.52 0.57 0.60 0.67 0.71 0.68 0.67 0.69 0.66 0.57 0.54 0.55 0.52 0.45 0.44 0.47 0.48 0.53 0.60 0.81 1.02 1.15 1.19 1.22 1.14 0.95 0.77 0.69 0.60 0.57 0.57 0.59 0.56
0.93 0.80 0.63 0.56 0.52 0.48 0.46 0.42 0.40 0.40 0.42 0.47 0.49 0.61 0.70 0.65 0.76 0.70 0.58 0.49 0.48 0.48 0.44 0.41 0.40 0.41 0.36 0.30 0.31 0.43 0.63 0.82 0.95 1.06 1.09 0.97 0.84 0.75 0.72 0.68 0.60 0.54 0.50
0.62 0.57 0.47 0.41 0.39 0.38 0.37 0.37 0.38 0.40 0.41 0.44 0.46 0.55 0.64 0.75 0.69 0.51 0.49 0.47 0.48 0.49 0.50 0.52 0.47 0.42 0.47 0.36 0.30 0.30 0.34 0.41 0.55 0.73 0.90 0.94 0.99 0.89 0.74 0.64 0.58 0.56 0.52
0.52 0.50 0.43 0.38 0.35 0.35 0.33 0.35 0.43 0.43 0.41 0.44 0.47 0.48 0.56 0.66 0.55 0.40 0.42 0.39 0.48 0.54 0.55 0.60 0.63 0.59 0.53 0.53 0.47 0.49 0.46 0.39 0.45 0.38 0.48 0.75 0.83 0.81 0.74 0.68 0.64 0.57 0.48
0.30 0.35 0.34 0.29 0.30 0.33 0.33 0.38 0.42 0.42 0.46 0.46 0.47 0.48 0.52 0.55 0.48 0.38 0.39 0.46 0.58 0.59 0.54 0.61 0.65 0.60 0.62 0.61 0.66 0.73 0.66 0.53 0.63 0.64 0.57 0.58 0.59 0.56 0.56 0.60 0.62 0.55 0.48
0.10 0.14 0.18 0.19 0.22 0.28 0.37 0.43 0.41 0.39 0.43 0.44 0.42 0.40 0.43 0.44 0.47 0.36 0.45 0.57 0.61 0.61 0.60 0.64 0.79 0.70 0.66 0.59 0.58 0.69 0.71 0.60 0.49 0.51 0.47 0.38 0.30 0.31 0.36 0.42 0.57 0.64 0.60
0.02 0.04 0.07 0.11 0.17 0.25 0.32 0.31 0.31 0.34 0.37 0.38 0.42 0.41 0.41 0.46 0.54 0.54 0.59 0.60 0.63 0.67 0.74 0.79 0.74 0.78 0.59 0.52 0.50 0.47 0.53 0.53 0.52 0.56 0.57 0.48 0.39 0.35 0.32 0.29 0.34 0.44 0.54
0.00 0.01 0.02 0.04 0.07 0.12 0.20 0.23 0.26 0.29 0.30 0.30 0.32 0.33 0.36 0.46 0.52 0.53 0.55 0.58 0.63 0.63 0.68 0.67 0.62 0.67 0.50 0.41 0.35 0.37 0.36 0.35 0.42 0.54 0.55 0.52 0.48 0.45 0.40 0.33 0.30 0.29 0.33
0.00 0.00 0.00 0.01 0.02 0.06 0.12 0.17 0.21 0.27 0.29 0.27 0.26 0.28 0.31 0.35 0.41 0.43 0.43 0.42 0.43 0.45 0.43 0.50 0.50 0.45 0.39 0.31 0.32 0.33 0.31 0.32 0.37 0.40 0.44 0.44 0.41 0.41 0.41 0.38 0.34 0.29 0.25
0.00 0.00 0.00 0.01 0.01 0.03 0.06 0.13 0.21 0.24 0.23 0.23 0.25 0.27 0.31 0.33 0.33 0.33 0.37 0.37 0.34 0.35 0.34 0.35 0.33 0.31 0.33 0.32 0.31 0.32 0.32 0.34 0.35 0.34 0.35 0.38 0.38 0.38 0.39 0.39 0.41 0.40 0.39
0.00 0.00 0.00 0.00 0.01 0.02 0.02 0.06 0.13 0.15 0.14 0.18 0.23 0.27 0.31 0.34 0.30 0.27 0.27 0.32 0.37 0.41 0.45 0.38 0.32 0.30 0.31 0.36 0.36 0.31 0.32 0.34 0.34 0.33 0.34 0.34 0.34 0.36 0.37 0.35 0.35 0.37 0.38
0.00 0.00 0.00 0.00 0.01 0.01 0.02 0.03 0.05 0.05 0.07 0.08 0.09 0.13 0.13 0.13 0.13 0.13 0.16 0.21 0.27 0.33 0.45 0.50 0.50 0.53 0.53 0.52 0.48 0.37 0.31 0.29 0.32 0.36 0.34 0.31 0.32 0.32 0.34 0.36 0.35 0.35 0.33
0.00 0.00 0.00 0.00 0.01 0.01 0.02 0.05 0.05 0.03 0.01 0.02 0.02 0.03 0.06 0.08 0.10 0.12 0.13 0.17 0.19 0.24 0.42 0.56 0.56 0.54 0.49 0.45 0.41 0.34 0.26 0.21 0.20 0.25 0.32 0.36 0.34 0.34 0.37 0.39 0.37 0.33 0.30
0.00 0.00 0.00 0.02 0.02 0.02 0.04 0.07 0.13 0.15 0.11 0.04 0.02 0.01 0.03 0.05 0.07 0.10 0.16 0.23 0.22 0.24 0.37 0.44 0.43 0.41 0.34 0.26 0.19 0.14 0.13 0.12 0.10 0.11 0.12 0.19 0.31 0.38 0.45 0.47 0.50 0.50 0.47
0.00 0.01 0.01 0.04 0.04 0.05 0.06 0.10 0.13 0.13 0.10 0.05 0.03 0.02 0.01 0.02 0.02 0.04 0.09 0.16 0.16 0.15 0.17 0.17 0.17 0.17 0.16 0.12 0.08 0.06 0.05 0.05 0.04 0.04 0.05 0.07 0.14 0.25 0.38 0.47 0.51 0.55 0.54
0.00 0.00 0.01 0.03 0.05 0.04 0.05 0.06 0.09 0.08 0.05 0.04 0.04 0.03 0.03 0.04 0.04 0.04 0.05 0.07 0.09 0.09 0.07 0.07 0.06 0.06 0.06 0.05 0.05 0.04 0.04 0.04 0.04 0.05 0.08 0.12 0.17 0.19 0.22 0.31 0.41 0.45 0.43
0.00 0.00 0.00 0.02 0.04 0.04 0.04 0.02 0.03 0.05 0.04 0.03 0.02 0.01 0.02 0.06 0.08 0.06 0.04 0.04 0.05 0.06 0.06 0.05 0.05 0.04 0.03 0.04 0.04 0.04 0.03 0.03 0.03 0.03 0.06 0.12 0.18 0.24 0.25 0.24 0.25 0.29 0.33
0.00 0.00 0.01 0.03 0.05 0.05 0.03 0.03 0.03 0.04 0.03 0.02 0.02 0.01 0.01 0.06 0.07 0.07 0.07 0.05 0.05 0.05 0.04 0.04 0.05 0.05 0.04 0.04 0.04 0.04 0.03 0.03 0.03 0.03 0.04 0.05 0.08 0.13 0.18 0.23 0.25 0.25 0.26
0.00 0.00 0.00 0.02 0.03 0.03 0.03 0.03 0.03 0.04 0.04 0.03 0.02 0.02 0.02 0.04 0.05 0.06 0.07 0.07 0.06 0.06 0.05 0.07 0.07 0.07 0.07 0.08 0.07 0.06 0.05 0.05 0.05 0.05 0.06 0.05 0.05 0.06 0.08 0.11 0.14 0.17 0.20
0.00 0.00 0.01 0.02 0.02 0.02 0.03 0.04 0.04 0.03 0.04 0.03 0.03 0.03 0.04 0.05 0.04 0.04 0.04 0.04 0.03 0.04 0.04 0.05 0.06 0.07 0.08 0.10 0.10 0.10 0.09 0.08 0.06 0.05 0.07 0.09 0.10 0.10 0.10 0.10 0.11 0.13 0.17
0.00 0.00 0.01 0.01 0.02 0.02 0.02 0.02 0.03 0.03 0.03 0.03 0.04 0.03 0.03 0.04 0.04 0.03 0.03 0.03 0.04 0.03 0.03 0.02 0.03 0.04 0.07 0.12 0.13 0.10 0.12 0.11 0.08 0.05 0.04 0.06 0.08 0.09 0.11 0.13 0.16 0.19 0.24
0.00 0.00 0.01 0.01 0.02 0.02 0.02 0.02 0.03 0.03 0.03 0.03 0.03 0.03 0.03 0.03 0.03 0.03 0.03 0.04 0.04 0.03 0.02 0.03 0.04 0.03 0.04 0.09 0.13 0.16 0.13 0.09 0.09 0.09 0.05 0.05 0.07 0.11 0.14 0.17 0.20 0.25 0.28